DW9945 Weather Reports


time (UTC)temp
F
wind
direction
speed
knots
gust
knots
rain 1hr
in
rain 24hr
in
rain mn
in
humidity
%
barometer
mb
20260508174006 60 10 2.6 6.1 0.00 0.14 0.14 65 1010.7
20260508173507 60 0 2.6 7.0 0.00 0.14 0.14 67 1010.7
20260508172007 61 352 6.1 8.7 0.00 0.14 0.14 67 1010.5
20260508171507 61 353 6.1 10.4 0.00 0.14 0.14 67 1010.6
20260508170507 62 355 3.5 5.2 0.00 0.14 0.14 64 1010.6
20260508170008 61 324 2.6 2.6 0.00 0.14 0.14 63 1010.6
20260508165507 61 292 3.5 6.1 0.00 0.14 0.14 63 1010.6
20260508165010 62 344 6.1 8.7 0.00 0.14 0.14 65 1010.6
20260508164507 61 315 5.2 10.4 0.00 0.14 0.14 67 1010.6
20260508164007 61 340 5.2 7.8 0.00 0.14 0.14 66 1010.7
20260508163507 61 301 4.3 7.8 0.00 0.14 0.14 64 1010.7
20260508163007 61 316 5.2 8.7 0.00 0.14 0.14 65 1010.8
20260508162507 61 321 5.2 8.7 0.00 0.14 0.14 68 1010.8
20260508161506 60 318 7.8 10.4 0.00 0.14 0.14 69 1010.8
20260508161006 60 341 8.7 12.2 0.00 0.14 0.14 71 1010.7
20260508160507 60 319 10.4 13.9 0.00 0.14 0.14 70 1010.8
20260508155506 61 291 10.4 14.8 0.00 0.15 0.14 72 1010.8
20260508154507 63 281 6.1 14.8 0.00 0.16 0.14 62 1010.9
20260508154006 63 228 5.2 10.4 0.00 0.17 0.14 60 1010.8
20260508153007 62 196 7.0 12.2 0.00 0.20 0.14 57 1010.8
20260508152507 62 216 7.8 13.0 0.00 0.20 0.14 58 1010.9
20260508152007 62 201 8.7 12.2 0.00 0.20 0.14 60 1010.8
20260508151507 62 197 6.1 10.4 0.00 0.21 0.14 61 1010.9
20260508151007 62 200 5.2 8.7 0.00 0.21 0.14 61 1010.9
20260508150507 61 212 5.2 8.7 0.00 0.21 0.14 62 1011.0
20260508145506 61 212 2.6 10.4 0.00 0.21 0.14 63 1011.0
20260508145006 61 180 4.3 8.7 0.00 0.21 0.14 62 1011.2
20260508144506 61 228 5.2 12.2 0.00 0.21 0.14 62 1011.2
20260508144006 61 168 4.3 10.4 0.00 0.21 0.14 63 1011.2
20260508143506 61 200 5.2 10.4 0.00 0.22 0.14 62 1011.3
20260508142507 61 200 3.5 7.8 0.00 0.24 0.14 63 1011.4
20260508142007 60 207 5.2 8.7 0.00 0.24 0.14 65 1011.3
20260508141507 60 157 2.6 7.8 0.00 0.24 0.14 66 1011.4
20260508141007 60 131 2.6 6.1 0.00 0.24 0.14 66 1011.4
20260508140007 60 207 2.6 6.1 0.00 0.24 0.14 68 1011.7
20260508135506 59 197 2.6 8.7 0.00 0.25 0.14 67 1011.8
20260508134506 59 107 4.3 7.0 0.01 0.27 0.14 69 1011.8
20260508134006 59 120 0.9 4.3 0.02 0.33 0.14 73 1011.7
20260508133506 58 273 0.9 2.6 0.04 0.35 0.14 73 1011.8
20260508133006 57 124 0.0 2.6 0.09 0.38 0.14 73 1011.8
20260508132506 57 178 1.7 4.3 0.09 0.39 0.14 75 1011.8
20260508131507 56 246 2.6 5.2 0.09 0.40 0.14 81 1011.8
20260508130507 55 315 5.2 8.7 0.09 0.40 0.14 80 1011.9
20260508130007 55 318 7.0 10.4 0.09 0.40 0.14 83 1011.9
20260508124506 53 325 7.8 10.4 0.09 0.39 0.13 84 1011.9
20260508124006 54 318 4.3 5.2 0.08 0.39 0.13 83 1012.3
20260508123506 54 322 0.0 0.9 0.06 0.36 0.10 83 1012.8
20260508123007 54 330 1.7 4.3 0.00 0.31 0.05 83 1012.8
20260508122507 54 340 5.2 7.0 0.00 0.31 0.05 81 1012.5
20260508122006 54 327 6.1 7.8 0.00 0.31 0.05 80 1012.7
20260508121506 54 340 6.1 10.4 0.00 0.31 0.05 81 1012.5
20260508120506 54 328 5.2 7.8 0.00 0.31 0.05 84 1012.6
20260508120007 54 333 5.2 7.0 0.01 0.31 0.05 81 1012.6
20260508115506 54 324 4.3 5.2 0.02 0.31 0.05 80 1012.5
20260508115006 54 318 4.3 7.0 0.02 0.31 0.05 83 1012.6
20260508114507 53 332 3.5 7.0 0.02 0.31 0.05 81 1012.7
20260508114006 53 327 4.3 7.0 0.04 0.31 0.05 82 1012.8
20260508113006 53 342 3.5 5.2 0.05 0.31 0.05 85 1012.6
20260508112507 52 330 4.3 6.1 0.05 0.31 0.05 87 1012.7
20260508111006 52 310 4.3 7.0 0.05 0.31 0.05 86 1013.2
20260508110507 52 301 4.3 7.0 0.05 0.31 0.05 88 1013.2
20260508110007 52 283 5.2 7.8 0.04 0.30 0.04 86 1013.2
20260508105506 52 281 5.2 10.4 0.03 0.29 0.03 86 1013.3
20260508105006 53 282 4.3 7.8 0.02 0.28 0.02 85 1013.1
20260508104506 53 308 6.1 7.8 0.02 0.28 0.02 83 1013.1
20260508104006 54 268 4.3 7.8 0.01 0.27 0.01 81 1013.2
20260508103506 55 237 3.5 6.1 0.00 0.26 0.00 78 1013.1
20260508103011 55 239 2.6 4.3 0.00 0.26 0.00 78 1013.1
20260508102507 55 206 3.5 5.2 0.00 0.26 0.00 76 1013.0
20260508102008 56 182 2.6 5.2 0.00 0.26 0.00 74 1012.9
20260508101508 56 192 1.7 4.3 0.00 0.26 0.00 74 1012.9
20260508101008 55 152 2.6 4.3 0.00 0.26 0.00 74 1012.9
20260508100509 55 215 3.5 5.2 0.00 0.26 0.00 75 1012.9
20260508100008 55 148 4.3 7.0 0.00 0.26 0.00 75 1012.8
20260508095508 55 130 2.6 6.1 0.00 0.26 0.00 75 1012.8
20260508095008 55 93 2.6 4.3 0.00 0.26 0.00 76 1012.8
20260508094508 54 109 2.6 6.1 0.00 0.26 0.00 75 1012.7
20260508094008 55 138 2.6 4.3 0.00 0.26 0.00 75 1012.7
20260508093508 54 89 0.9 4.3 0.00 0.26 0.00 76 1012.7
20260508093008 54 133 1.7 2.6 0.00 0.26 0.00 75 1012.9
20260508092508 54 109 0.0 0.0 0.00 0.26 0.00 76 1012.9
20260508092008 54 109 0.0 2.6 0.00 0.26 0.00 76 1012.8
20260508091508 54 148 0.9 2.6 0.00 0.26 0.00 78 1012.7
20260508090509 53 110 1.7 5.2 0.00 0.26 0.00 78 1012.8
20260508090008 53 115 3.5 7.0 0.00 0.26 0.00 77 1013.0
20260508085508 53 125 3.5 7.0 0.00 0.26 0.00 78 1012.9
20260508085008 53 100 2.6 7.0 0.00 0.26 0.00 78 1012.7
20260508084508 53 84 4.3 6.1 0.00 0.26 0.00 78 1012.7
20260508084008 52 101 4.3 7.0 0.00 0.26 0.00 78 1012.6
20260508083509 52 66 4.3 7.0 0.00 0.26 0.00 78 1012.5
20260508083008 53 85 5.2 7.8 0.00 0.26 0.00 77 1012.5
20260508082008 52 74 2.6 6.1 0.00 0.26 0.00 79 1012.6
20260508081008 52 82 4.3 6.1 0.00 0.26 0.00 81 1012.6
20260508080008 51 68 2.6 4.3 0.00 0.26 0.00 82 1012.7
20260508075508 51 66 2.6 5.2 0.00 0.26 0.00 82 1012.8
20260508075008 51 70 1.7 6.1 0.00 0.26 0.00 82 1012.8
20260508074008 50 45 0.9 2.6 0.00 0.26 0.00 85 1012.8
20260508073508 50 54 1.7 4.3 0.00 0.26 0.00 85 1012.7
20260508073008 49 72 2.6 5.2 0.00 0.26 0.00 85 1012.7
20260508072507 49 47 0.0 2.6 0.00 0.26 0.00 86 1012.7
20260508072007 49 44 0.9 2.6 0.00 0.26 0.00 86 1012.6
20260508071508 49 18 1.7 2.6 0.00 0.26 0.00 86 1012.5
20260508071008 49 50 0.9 5.2 0.00 0.26 0.00 86 1012.2
20260508070508 49 40 1.7 5.2 0.00 0.26 0.00 86 1012.2
20260508070008 49 52 2.6 4.3 0.00 0.26 0.00 85 1012.5
20260508065008 48 54 1.7 5.2 0.00 0.26 0.00 85 1012.4
20260508064008 48 56 1.7 4.3 0.00 0.26 0.00 86 1012.3
20260508063508 48 55 0.0 1.7 0.00 0.26 0.00 86 1012.4
20260508063008 48 45 0.0 2.6 0.00 0.26 0.00 86 1012.4
20260508062507 48 11 1.7 4.3 0.00 0.26 0.00 85 1012.3
20260508062007 48 46 3.5 7.8 0.00 0.26 0.00 85 1012.2
20260508061509 48 52 3.5 7.0 0.00 0.26 0.00 86 1012.3
20260508061008 48 53 3.5 7.0 0.00 0.26 0.00 87 1012.2
20260508060508 48 34 2.6 4.3 0.00 0.26 0.00 87 1012.2
20260508060007 48 17 2.6 4.3 0.00 0.26 0.00 87 1012.3
20260508055507 47 24 4.3 7.0 0.00 0.26 0.00 87 1012.2
20260508055007 47 25 3.5 6.1 0.00 0.26 0.00 87 1012.5
20260508054008 47 25 4.3 7.0 0.00 0.26 0.00 87 1012.4
20260508053508 47 9 3.5 6.1 0.00 0.26 0.00 88 1012.4
20260508053008 47 23 3.5 6.1 0.00 0.26 0.00 88 1012.3
20260508052508 47 24 4.3 7.0 0.00 0.26 0.00 88 1012.3
20260508052008 47 24 4.3 7.8 0.00 0.26 0.00 88 1012.2
20260508051508 47 26 4.3 6.1 0.00 0.26 0.00 88 1012.3
20260508051008 47 21 4.3 7.0 0.00 0.26 0.00 89 1012.3
20260508050508 46 22 2.6 6.1 0.00 0.26 0.00 89 1012.3
20260508050008 46 8 2.6 4.3 0.00 0.26 0.00 90 1012.4
20260508045508 46 17 2.6 6.1 0.00 0.26 0.00 90 1012.4
20260508044508 45 12 2.6 4.3 0.00 0.26 0.00 90 1012.2
20260508044007 45 2 1.7 2.6 0.00 0.26 0.00 90 1012.2
20260508043508 45 355 0.0 2.6 0.00 0.26 0.00 89 1012.2
20260508043008 45 358 2.6 4.3 0.00 0.26 0.00 89 1012.1
20260508042508 45 5 1.7 2.6 0.00 0.26 0.00 89 1012.1
20260508042008 46 22 2.6 4.3 0.00 0.26 0.00 89 1012.1
20260508041508 46 20 2.6 6.1 0.00 0.26 0.00 89 1012.1
20260508041007 46 13 2.6 4.3 0.00 0.26 0.00 89 1012.0
20260508040507 46 19 2.6 4.3 0.00 0.26 0.00 89 1011.9
20260508040008 46 20 2.6 5.2 0.00 0.26 0.00 89 1011.9
20260508035507 46 16 0.0 2.6 0.00 0.26 0.00 90 1011.8
20260508035007 46 14 0.0 2.6 0.00 0.26 0.00 90 1011.8
20260508034507 46 14 2.6 2.6 0.00 0.26 0.00 89 1011.9
20260508033507 46 2 2.6 4.3 0.00 0.26 0.00 89 1011.9
20260508033007 46 16 3.5 5.2 0.00 0.26 0.00 88 1011.9
20260508032507 46 358 2.6 2.6 0.00 0.26 0.00 88 1011.9
20260508032008 47 0 1.7 6.1 0.00 0.26 0.00 88 1011.9
20260508031008 47 22 4.3 7.0 0.00 0.26 0.00 88 1011.7
20260508030507 47 25 4.3 7.8 0.00 0.26 0.00 88 1011.7
20260508030008 47 15 4.3 7.0 0.00 0.26 0.00 88 1011.7
20260508025507 46 25 4.3 7.8 0.00 0.26 0.00 88 1011.7
20260508025008 47 13 4.3 7.8 0.00 0.26 0.00 88 1011.7
20260508024508 47 15 5.2 7.8 0.00 0.26 0.00 88 1011.7
20260508024007 47 21 5.2 8.7 0.00 0.26 0.00 88 1011.7
20260508023508 47 25 4.3 7.8 0.00 0.26 0.00 88 1011.8
20260508023008 47 25 6.1 8.7 0.00 0.26 0.00 88 1011.8
20260508022507 46 32 5.2 7.8 0.00 0.26 0.00 89 1011.9
20260508022008 46 26 4.3 7.8 0.00 0.26 0.00 89 1011.9
20260508021507 46 22 2.6 7.0 0.00 0.26 0.00 89 1012.0
20260508021008 46 19 3.5 7.0 0.00 0.26 0.00 89 1012.0
20260508020508 46 23 3.5 6.1 0.00 0.26 0.00 89 1012.1
20260508020008 46 24 3.5 7.0 0.00 0.26 0.00 89 1012.2
20260508015508 46 31 4.3 7.0 0.00 0.26 0.00 90 1012.2
20260508015007 46 25 2.6 4.3 0.00 0.26 0.00 90 1012.3
20260508014507 46 15 2.6 4.3 0.00 0.26 0.00 90 1012.3
20260508014008 46 6 2.6 4.3 0.00 0.26 0.00 89 1012.4
20260508013508 46 2 2.6 4.3 0.00 0.26 0.00 89 1012.4
20260508013009 46 5 1.7 2.6 0.00 0.26 0.00 89 1012.5
20260508012508 46 22 2.6 4.3 0.00 0.26 0.00 90 1012.4
20260508012007 46 28 2.6 4.3 0.00 0.26 0.00 90 1012.5
20260508011507 46 13 2.6 4.3 0.00 0.26 0.00 90 1012.7
20260508011008 46 20 2.6 2.6 0.00 0.26 0.00 90 1012.8
20260508005519 46 26 1.7 2.6 0.00 0.26 0.00 90 1012.9
20260508005019 46 26 1.7 4.3 0.00 0.26 0.00 90 1012.9
20260508004519 46 17 2.6 4.3 0.00 0.26 0.00 90 1013.0
20260508004018 46 17 1.7 4.3 0.00 0.26 0.00 90 1013.0
20260508003518 46 23 1.7 2.6 0.00 0.26 0.00 90 1013.2
20260508003018 46 17 2.6 2.6 0.00 0.26 0.00 90 1013.2
20260508002518 46 8 2.6 2.6 0.00 0.26 0.00 90 1013.2
20260508002018 46 15 1.7 2.6 0.00 0.26 0.00 90 1013.3
20260508001518 46 15 1.7 2.6 0.00 0.26 0.00 90 1013.3
20260508001018 46 13 1.7 2.6 0.00 0.26 0.00 90 1013.3
20260508000518 46 27 1.7 2.6 0.00 0.26 0.00 90 1013.3
20260508000018 46 27 1.7 2.6 0.00 0.26 0.00 90 1013.3
20260507235521 46 27 0.9 2.6 0.00 0.26 0.00 90 1013.2
20260507235018 46 26 1.7 4.3 0.00 0.26 0.00 90 1013.2
20260507234518 46 25 1.7 2.6 0.00 0.26 0.00 90 1013.3
20260507234018 46 25 2.6 2.6 0.00 0.26 0.00 89 1013.4
20260507233519 46 25 1.7 2.6 0.00 0.26 0.00 89 1013.4
20260507232507 46 25 1.7 2.6 0.00 0.26 0.00 89 1013.5
20260507232007 46 13 2.6 4.3 0.00 0.26 0.00 89 1013.4
20260507231518 46 29 3.5 4.3 0.00 0.26 0.00 88 1013.4
20260507231018 47 29 2.6 2.6 0.00 0.26 0.00 87 1013.4
20260507230018 48 29 0.0 0.0 0.00 0.26 0.00 88 1013.4
20260507225518 48 29 0.0 0.0 0.00 0.26 0.00 88 1013.4
20260507225018 47 29 0.0 0.0 0.00 0.26 0.00 89 1013.5
20260507224518 47 29 0.0 0.0 0.00 0.26 0.00 88 1013.5
20260507224018 48 29 0.0 0.0 0.00 0.26 0.00 88 1013.6
20260507223007 48 29 0.0 0.0 0.00 0.26 0.00 88 1013.6
20260507222518 48 29 0.0 0.0 0.00 0.26 0.00 88 1013.6
20260507222018 48 29 0.0 0.0 0.00 0.26 0.00 88 1013.7
20260507221518 48 29 0.0 0.0 0.00 0.26 0.00 88 1013.5
20260507221018 48 29 0.0 0.0 0.00 0.26 0.00 88 1013.6
20260507220519 48 29 0.0 0.0 0.00 0.26 0.00 88 1013.6
20260507220019 48 29 0.0 0.0 0.00 0.26 0.00 88 1013.6
20260507215518 48 29 0.0 0.0 0.00 0.26 0.26 88 1013.6
20260507215018 48 29 0.0 0.0 0.00 0.26 0.26 89 1013.6
20260507214507 48 29 0.0 0.0 0.00 0.26 0.26 88 1013.6
20260507214018 48 29 0.0 0.0 0.00 0.26 0.26 88 1013.4
20260507213518 48 29 0.0 0.0 0.00 0.26 0.26 88 1013.4
20260507212518 49 0 0.0 0.0 0.00 0.26 0.26 88 1013.4
20260507212018 49 0 0.0 0.0 0.00 0.26 0.26 88 1013.3
20260507211519 48 0 0.0 0.0 0.00 0.26 0.26 87 1013.3
20260507210519 49 0 0.0 0.0 0.00 0.26 0.26 85 1013.3
20260507210018 49 0 0.0 0.0 0.00 0.26 0.26 85 1013.2
20260507205517 49 0 0.0 0.0 0.00 0.26 0.26 85 1012.9
20260507205007 49 0 0.0 0.0 0.00 0.26 0.26 85 1012.8
20260507204518 49 0 0.0 0.0 0.00 0.26 0.26 85 1012.7
20260507204007 49 349 0.0 0.0 0.00 0.26 0.26 83 1012.6
20260507203518 50 349 0.0 0.0 0.00 0.26 0.26 82 1012.5
20260507203018 51 349 0.0 0.0 0.00 0.26 0.26 81 1012.5
20260507202518 52 105 0.0 0.0 0.00 0.26 0.26 83 1012.3
20260507201518 52 175 1.7 4.3 0.00 0.26 0.26 84 1012.2
20260507201018 51 69 1.7 2.6 0.00 0.26 0.26 84 1012.2
20260507200519 51 5 0.0 0.0 0.00 0.26 0.26 83 1012.3
20260507195507 52 5 0.0 0.0 0.00 0.26 0.26 81 1012.1
20260507195018 52 5 0.0 0.0 0.00 0.26 0.26 80 1012.0
20260507194018 52 5 0.0 0.0 0.00 0.26 0.26 82 1011.9
20260507193018 52 350 0.0 0.0 0.00 0.26 0.26 80 1011.6
20260507192506 52 350 0.0 2.6 0.00 0.26 0.26 81 1011.6
20260507192018 52 353 2.6 4.3 0.00 0.26 0.26 82 1011.4
20260507191018 52 341 2.6 4.3 0.00 0.26 0.26 80 1011.2
20260507190518 53 340 3.5 4.3 0.00 0.26 0.26 80 1011.2
20260507190008 53 340 4.3 4.3 0.00 0.26 0.26 79 1011.0
20260507185518 54 341 2.6 4.3 0.00 0.26 0.26 78 1011.1
20260507184519 55 357 2.6 4.3 0.00 0.26 0.26 77 1010.8
20260507183018 56 3 2.6 2.6 0.00 0.26 0.26 73 1010.7
20260507182507 56 5 1.7 2.6 0.00 0.26 0.26 74 1010.7
20260507182018 56 5 1.7 4.3 0.00 0.26 0.26 72 1010.6
20260507181518 57 355 2.6 4.3 0.00 0.26 0.26 72 1010.5
20260507181017 57 331 1.7 2.6 0.00 0.26 0.26 72 1010.5
20260507180517 57 317 2.6 2.6 0.00 0.26 0.26 69 1010.6
20260507180018 57 317 2.6 4.3 0.00 0.26 0.26 69 1010.7
20260507175518 57 317 2.6 6.1 0.00 0.26 0.26 70 1010.7
20260507175018 56 304 1.7 7.0 0.00 0.26 0.26 70 1010.7
20260507174518 56 316 6.1 10.4 0.00 0.26 0.26 72 1010.7